Lancaster, PA

2:55 AM EDT on October 18, 2017 (GMT -0400)
Lancaster

Weather History for KLNS - June, 2012

Change the Weather History Date:

Thursday, June 28, 2012

  Actual Average Record
Temperature  
Mean Temperature 76 °F -  
Max Temperature 91 °F 83 °F 93 °F (1983)
Min Temperature 62 °F 61 °F 51 °F (1981)
Cooling Degree Days 11    
Growing Degree Days 26 (Base 50)    
Moisture  
Dew Point 57 °F    
Average Humidity 52    
Maximum Humidity 84    
Minimum Humidity 28    
Precipitation  
Precipitation 0.00 in - - ()
Sea Level Pressure  
Sea Level Pressure 29.82 in    
Wind  
Wind Speed 5 mph (WSW)    
Max Wind Speed 14 mph    
Max Gust Speed 18 mph    
Visibility 10 miles    
Events      
Averages and records for this station are not official NWS values.
T = Trace of Precipitation, MM = Missing Value Source: NWS Daily Summary

Daily Weather History Graph

Daily Weather History Graph

Search for Another Location

Airport or City:

Trip Planner

Search our weather history database for the weather conditions in past years. The results will help you decide how hot, cold, wet, or windy it might be!

Date:

Astronomy

Jun. 28, 2012 Rise Set
Actual Time 5:38 AM EDT 8:38 PM EDT
Civil Twilight 5:05 AM EDT 9:11 PM EDT
Nautical Twilight 4:23 AM EDT 9:53 PM EDT
Astronomical Twilight 3:35 AM EDT 10:41 PM EDT
Moon 3:10 PM EDT (6/28) 1:10 AM EDT (6/28)
Length of Visible Light 16h 05m
Length of Day
14h 59m
Waxing Gibbous, 67% of the Moon is Illuminated
Jun 28
Waxing Gibbous
Jul 3
Full
Jul 10
Last Quarter
Jul 19
New
Jul 26
First Quarter

Hourly Weather History & Observations

Time (EDT) Temp. Heat Index Dew Point Humidity Pressure Visibility Wind Dir Wind Speed Gust Speed Precip Events Conditions
12:53 AM 66.9 °F - 54.0 °F 63% 29.90 in 10.0 mi WNW 4.6 mph - N/A   Clear
1:53 AM 66.9 °F - 55.0 °F 66% 29.89 in 10.0 mi Calm Calm - N/A   Clear
2:53 AM 66.0 °F - 55.0 °F 68% 29.88 in 10.0 mi Calm Calm - N/A   Clear
3:53 AM 64.9 °F - 55.0 °F 70% 29.88 in 10.0 mi WNW 3.5 mph - N/A   Clear
4:53 AM 64.0 °F - 55.0 °F 73% 29.88 in 10.0 mi Calm Calm - N/A   Clear
5:53 AM 62.1 °F - 55.0 °F 78% 29.88 in 9.0 mi Calm Calm - N/A   Clear
6:53 AM 62.1 °F - 57.0 °F 84% 29.88 in 8.0 mi Calm Calm - N/A   Clear
7:53 AM 68.0 °F - 57.9 °F 70% 29.88 in 8.0 mi WNW 4.6 mph - N/A   Clear
8:53 AM 73.9 °F - 57.9 °F 57% 29.87 in 9.0 mi WSW 5.8 mph - N/A   Clear
9:53 AM 78.1 °F - 57.9 °F 50% 29.87 in 10.0 mi West 8.1 mph - N/A   Partly Cloudy
10:53 AM 82.9 °F 82.6 °F 57.9 °F 42% 29.86 in 10.0 mi West 9.2 mph - N/A   Partly Cloudy
11:53 AM 84.9 °F 83.9 °F 57.0 °F 38% 29.84 in 10.0 mi West 11.5 mph - N/A   Clear
12:53 PM 84.9 °F 83.9 °F 57.0 °F 38% 29.83 in 10.0 mi WNW 9.2 mph - N/A   Partly Cloudy
1:53 PM 89.1 °F 87.3 °F 55.9 °F 32% 29.81 in 10.0 mi West 10.4 mph - N/A   Clear
2:53 PM 90.0 °F 87.5 °F 53.1 °F 28% 29.79 in 10.0 mi WNW 10.4 mph - N/A   Clear
3:53 PM 90.0 °F 88.1 °F 55.9 °F 31% 29.77 in 10.0 mi WSW 13.8 mph - N/A   Clear
4:53 PM 90.0 °F 88.6 °F 57.0 °F 33% 29.77 in 10.0 mi West 13.8 mph 18.4 mph N/A   Clear
5:53 PM 89.1 °F 87.7 °F 57.0 °F 34% 29.75 in 10.0 mi WSW 10.4 mph - N/A   Clear
6:53 PM 88.0 °F 86.9 °F 57.9 °F 36% 29.76 in 10.0 mi WSW 8.1 mph - N/A   Clear
7:53 PM 84.9 °F 85.0 °F 61.0 °F 44% 29.75 in 10.0 mi SSW 5.8 mph - N/A   Clear
8:53 PM 82.9 °F 83.3 °F 61.0 °F 47% 29.75 in 10.0 mi SSW 8.1 mph - N/A   Clear
9:53 PM 80.1 °F 81.2 °F 62.1 °F 54% 29.77 in 10.0 mi SW 4.6 mph - N/A   Clear
10:53 PM 79.0 °F - 62.1 °F 56% 29.75 in 10.0 mi SW 4.6 mph - N/A   Clear
11:53 PM 79.0 °F - 61.0 °F 54% 29.74 in 10.0 mi Calm Calm - N/A   Clear